Presure
177 152 163 197 151 180 189 190 203 205 195 224 221 213 211 183 186 188 197 197 196 206 198 227 233 202 200 198 196 182 188 184 173 176 171 175 181 179 184 181 176 182 168 167 170 174 176
166 159 190 185 177 150 213 183 200 200 231 208 235 209 186 204 192 181 206 185 197 193 197 204 203 236 201 195 184 202 195 181 196 186 195 198 194 188 185 186 169 185 186 172 128 166 171
153 186 195 180 207 193 215 190 167 209 236 234 224 175 205 210 199 185 189 201 196 183 184 202 184 212 220 230 195 196 149 181 181 183 181 190 188 205 194 190 187 176 189 175 168 170 187
161 176 154 194 200 206 188 171 211 168 211 216 242 246 236 231 215 190 207 205 195 189 203 190 187 185 184 201 231 198 196 176 188 184 185 172 179 176 174 179 195 173 185 174 167 191 191
154 159 200 186 170 178 210 206 159 211 215 216 229 243 233 246 232 204 206 198 200 197 198 186 193 198 178 187 204 211 231 227 207 202 194 174 182 175 167 158 165 188 159 166 162 189 167
155 146 193 173 199 210 199 203 208 208 217 205 224 229 232 234 226 219 197 207 211 191 192 203 185 205 197 187 212 199 202 229 229 235 208 201 203 204 174 166 165 177 165 172 185 164 164
133 191 204 158 181 202 206 207 204 209 215 220 210 230 231 237 240 228 212 218 194 194 204 191 189 198 201 184 182 187 217 208 209 229 232 257 203 203 202 197 200 196 164 167 170 184 168
192 198 163 183 195 200 199 179 231 211 256 247 239 233 230 221 224 223 221 214 211 185 199 193 206 190 211 188 195 183 197 194 193 206 201 250 258 257 219 204 203 206 196 170 161 183 165
205 168 163 191 148 214 215 222 226 246 255 255 258 237 221 234 215 216 214 206 163 199 200 192 196 193 199 213 183 196 197 204 196 214 203 240 246 212 188 262 242 199 212 205 182 194 177
151 161 181 208 219 220 219 261 322 277 257 248 245 251 247 229 224 220 208 218 201 209 186 205 204 192 198 210 186 194 203 179 214 217 231 242 266 245 239 265 244 245 228 204 203 195 193
213 206 177 225 229 233 437 421 426 419 370 283 254 243 242 228 238 213 208 204 214 201 182 189 181 198 197 206 196 193 186 188 179 231 232 229 258 246 240 184 255 245 238 234 228 205 195
219 211 223 229 292 377 363 387 387 398 398 404 322 257 240 223 234 232 222 213 205 201 193 199 189 176 185 207 216 194 202 177 182 229 230 236 250 245 241 255 246 237 234 230 228 223 220
203 196 222 255 367 371 353 345 353 353 366 372 382 351 272 241 228 229 231 218 228 223 219 217 214 217 198 186 203 198 185 231 228 228 229 242 281 236 269 258 247 236 233 227 224 225 218
222 237 264 341 338 342 347 330 327 327 326 334 357 376 356 279 244 238 228 204 226 225 230 205 227 221 224 222 227 221 176 168 172 222 237 261 280 224 262 257 248 235 227 224 224 220 219
224 242 318 333 311 332 318 332 334 342 350 360 357 368 337 338 336 250 240 235 220 225 228 221 216 216 223 213 219 225 231 224 226 208 238 292 269 227 255 255 247 238 228 223 222 219 215
249 250 342 320 314 295 316 308 318 305 295 305 319 322 329 344 333 334 288 237 230 235 219 205 214 216 221 214 219 227 227 232 223 226 312 228 276 263 254 245 250 237 221 220 220 220 215
222 241 337 315 295 291 298 297 295 288 295 293 298 294 297 302 318 335 329 322 322 235 228 226 221 214 215 217 221 235 243 249 229 260 306 297 285 264 256 247 238 238 233 228 224 216 219
227 235 325 306 284 289 294 262 285 289 274 290 291 289 308 367 355 323 320 310 301 309 314 299 241 237 248 300 242 249 273 305 272 293 294 285 280 266 251 244 241 228 224 220 219 216 213
270 255 318 303 287 272 271 273 271 257 261 278 274 288 288 278 291 307 313 308 307 314 313 308 295 303 294 279 280 270 269 295 292 294 285 277 280 260 249 242 233 234 222 212 214 209 202
264 255 282 296 273 276 263 282 267 260 266 258 276 285 279 282 279 277 291 291 293 345 311 302 288 281 281 263 270 271 280 272 266 284 279 270 269 266 245 233 229 225 220 221 217 219 217
254 246 242 299 279 272 256 252 290 266 269 256 264 257 257 263 265 268 275 274 273 288 279 277 268 262 259 261 266 266 257 260 260 272 264 265 261 262 248 239 231 220 215 212 207 206 207
248 236 245 293 285 271 262 252 262 274 267 245 254 256 250 249 263 250 252 262 271 262 260 256 254 251 265 271 270 268 262 262 260 267 257 257 251 254 251 237 229 222 216 214 216 214 207
229 226 238 251 301 286 269 253 242 262 261 262 244 246 243 245 242 240 247 257 243 253 249 253 250 251 255 262 259 254 251 247 259 265 253 245 252 241 233 236 240 223 215 208 212 210 211
232 230 230 246 280 281 291 277 251 241 255 238 247 237 241 243 236 245 241 243 242 257 236 254 250 246 249 246 244 243 244 241 253 241 238 234 240 245 230 224 226 214 208 209 215 212 208
230 219 227 250 242 271 278 311 282 253 241 251 248 238 234 247 243 238 240 243 251 252 250 249 251 251 249 250 240 235 238 245 247 233 228 227 230 240 229 215 218 214 210 208 210 209 204
237 219 225 248 248 285 289 288 321 243 255 244 241 249 237 238 239 239 230 233 235 239 248 256 252 245 245 241 242 235 231 244 230 228 229 220 220 224 235 230 220 212 213 209 210 209 209
236 216 228 240 247 277 285 342 337 308 273 262 255 244 240 242 246 236 238 226 229 231 237 239 243 234 236 239 233 227 227 233 231 236 232 228 215 218 221 227 215 214 218 214 212 210 208
220 216 220 236 251 283 280 316 285 265 258 247 276 265 259 246 243 241 237 235 231 229 229 223 229 230 232 228 231 227 231 230 222 221 232 225 219 218 222 222 223 214 216 224 222 217 212
220 218 226 242 256 271 288 344 301 264 258 281 287 282 292 271 258 250 243 250 237 229 224 232 223 226 224 225 233 222 217 216 220 220 216 214 214 217 221 219 214 221 225 228 228 220 210
Wind_Speed
49 49 48 61 50 53 38 42 54 48 39 38 40 42 44 48 52 49 50 49 49 44 52 39 50 68 68 69 73 78 78 79 80 79 81 79 76 74 74 72 71 67 64 63 63 64 62
52 55 62 55 48 52 57 42 54 48 45 42 39 45 44 50 54 52 50 54 53 54 49 49 52 41 63 69 74 69 73 74 74 76 73 74 73 71 73 72 69 68 65 61 40 57 63
57 65 70 54 65 62 67 49 53 60 53 43 42 43 48 49 55 55 56 55 57 56 57 47 58 48 50 47 65 69 60 77 75 77 78 70 68 71 69 71 74 67 65 56 70 67 66
56 53 57 71 68 66 52 52 71 58 56 47 44 45 47 52 56 60 56 53 58 61 44 57 62 61 59 56 42 65 71 76 77 78 80 76 75 72 71 68 68 66 65 68 70 65 59
56 60 70 57 49 55 75 75 61 68 62 52 45 45 44 49 56 60 62 61 60 65 63 68 59 58 62 60 59 59 47 63 67 80 83 73 80 78 73 68 71 71 65 65 63 63 61
58 52 62 50 76 78 76 68 73 72 72 52 50 45 47 49 52 60 60 58 57 63 65 56 66 51 62 66 53 60 62 49 56 53 84 82 81 80 79 76 74 77 70 71 71 66 65
45 74 80 58 62 79 83 80 73 74 73 69 53 50 50 51 54 54 61 59 65 66 56 70 71 61 60 69 64 64 54 64 62 56 56 54 77 78 84 81 79 85 68 71 71 74 72
74 74 56 71 77 79 75 67 89 71 79 74 67 58 49 53 54 55 57 61 54 60 65 69 57 72 55 70 65 62 59 60 63 70 64 51 57 63 75 80 78 82 80 77 69 76 71
82 67 64 75 55 88 88 92 91 86 80 72 69 63 54 52 58 58 60 63 39 60 64 70 67 68 66 60 69 69 68 61 63 62 68 56 59 64 62 63 74 79 83 89 79 81 79
59 59 70 86 95 91 89 93 81 83 81 75 69 66 65 59 59 66 66 65 68 66 61 63 67 69 66 64 66 72 68 54 61 59 58 58 56 63 66 61 65 65 76 85 84 81 76
85 82 72 98 96 91 48 47 44 50 82 77 74 69 69 65 69 68 67 70 70 74 54 66 59 68 71 71 71 68 62 59 54 59 57 57 59 61 64 61 63 64 66 68 75 84 81
92 85 94 94 75 47 48 41 42 40 41 45 86 75 72 68 70 72 72 76 78 78 68 70 72 60 67 73 74 68 69 53 57 62 58 58 61 62 62 60 63 66 64 65 66 68 70
83 81 90 95 45 41 40 39 31 29 30 35 42 71 81 76 74 75 78 78 83 81 80 81 81 82 75 64 72 68 58 69 67 64 60 62 58 61 63 62 65 65 64 66 66 61 60
95 104 94 53 53 44 39 34 31 29 26 26 34 36 40 85 80 78 79 68 79 78 83 73 82 82 81 79 77 74 55 55 58 63 66 60 59 60 62 62 66 68 68 64 61 60 60
96 98 71 51 55 44 41 34 27 21 17 14 15 20 38 47 52 81 82 81 76 79 79 78 77 76 77 77 75 74 73 69 67 61 66 54 58 62 63 63 65 65 64 66 64 62 61
105 96 50 51 46 45 38 31 24 16 14 10 6 7 17 30 42 48 70 77 79 83 79 73 76 73 77 77 76 76 73 71 67 65 53 59 59 63 65 63 60 64 66 65 63 64 63
92 92 41 44 46 44 42 32 26 23 21 17 10 14 20 23 28 33 42 47 51 82 81 80 78 76 77 78 76 77 74 72 67 61 53 55 63 66 66 63 63 63 64 64 64 59 57
93 88 38 43 47 42 38 33 23 14 18 16 15 16 12 7 9 24 31 41 49 52 55 59 78 79 77 59 76 74 63 49 57 51 53 58 64 65 63 64 62 63 64 65 64 63 63
81 78 38 38 41 44 40 33 23 26 22 20 13 14 4 8 4 9 15 28 36 40 45 46 48 46 47 51 52 58 56 38 45 51 54 57 59 63 63 61 60 63 69 69 69 68 65
75 73 56 41 46 42 40 28 26 24 17 18 14 9 4 8 6 7 8 19 22 23 35 36 41 42 42 50 49 45 34 42 48 45 51 57 58 63 62 61 62 63 67 69 70 68 70
74 73 71 41 44 43 39 35 27 22 15 17 12 10 7 7 9 12 11 14 18 21 28 33 39 44 48 49 49 45 49 48 49 46 50 53 55 60 65 66 66 66 69 71 71 72 71
73 74 70 47 44 42 40 36 30 24 14 22 14 10 12 12 10 14 15 16 19 22 30 34 37 44 43 43 45 46 45 45 48 51 55 55 56 60 65 67 68 70 70 69 70 71 72
73 71 70 65 41 39 36 35 34 25 18 15 19 18 22 21 21 21 17 16 24 24 29 34 39 40 38 37 40 42 43 46 44 48 52 55 57 59 60 61 65 63 67 73 75 75 75
71 70 70 65 48 43 39 35 34 32 24 29 26 28 26 25 28 26 26 24 26 30 35 34 38 40 40 43 43 44 45 47 47 51 56 58 59 62 62 64 63 64 73 76 75 78 78
72 72 71 66 65 54 45 35 37 35 34 32 32 34 35 32 31 30 29 27 27 34 39 37 36 41 43 44 47 47 47 48 50 56 57 59 59 60 64 67 67 68 74 77 77 78 79
70 71 72 67 66 53 47 43 37 37 40 38 37 40 40 40 39 39 38 36 35 33 32 41 45 45 46 48 47 50 53 52 55 57 59 63 64 64 61 66 70 72 76 79 80 79 83
71 72 74 73 69 61 56 46 40 36 38 42 45 44 43 45 49 48 46 45 44 44 41 41 42 47 48 50 51 53 54 55 54 58 59 63 69 67 69 67 72 76 80 83 82 85 86
71 73 74 76 71 60 55 46 38 39 39 41 45 50 54 51 53 52 53 53 51 50 52 50 50 52 52 55 56 57 56 58 61 63 63 69 71 73 74 74 75 81 82 85 86 87 88
72 73 76 77 75 66 60 48 42 43 44 45 47 48 53 59 60 60 59 62 60 57 55 59 58 60 60 60 63 64 64 64 66 69 72 74 76 78 80 82 81 83 85 87 89 90 90
Wind_Direction
320 319 316 334 300 319 325 327 339 316 293 289 276 263 253 262 258 258 251 253 252 248 249 250 244 244 246 246 247 252 252 254 255 254 255 257 254 255 254 254 258 261 260 262 264 267 268
321 313 327 324 312 304 325 308 336 317 303 290 274 265 262 250 254 260 242 260 249 250 253 249 250 251 247 246 248 245 248 252 249 254 251 250 253 253 256 257 258 259 257 261 256 264 266
316 324 329 313 327 331 321 323 293 327 314 293 279 263 259 255 252 259 256 243 244 253 253 250 249 249 249 248 244 243 254 252 253 252 254 250 250 249 251 253 254 258 257 258 258 260 265
310 309 309 329 320 318 319 292 319 301 315 296 283 266 260 252 248 255 247 245 242 248 242 248 252 252 250 249 249 246 246 253 251 253 251 253 251 250 252 252 255 254 252 249 257 264 265
305 311 322 316 295 306 317 318 299 318 314 304 293 268 260 252 245 246 246 244 240 239 242 250 250 246 254 252 252 251 247 247 250 248 248 252 253 251 253 253 256 255 254 257 261 262 261
314 310 322 301 321 318 317 316 316 312 308 298 291 278 261 249 244 241 247 238 238 246 244 239 252 246 245 254 252 252 252 254 251 252 248 249 249 249 252 254 256 255 256 258 255 261 262
304 320 318 295 310 318 315 311 308 305 301 297 290 280 262 252 247 245 244 242 245 245 237 244 247 244 244 255 257 257 250 253 255 256 254 263 249 250 249 250 250 247 259 261 258 254 258
320 311 301 306 312 312 307 305 303 298 293 287 283 278 264 254 247 244 238 238 243 253 243 245 244 248 254 249 250 257 251 258 258 257 253 264 258 250 250 252 253 253 249 254 257 249 259
315 309 300 314 307 311 307 304 300 293 288 281 272 270 260 251 248 245 237 237 257 244 241 245 247 248 250 253 253 251 254 259 259 255 260 256 256 255 255 250 249 250 253 252 250 250 254
300 310 317 318 313 308 305 298 279 281 279 276 271 260 255 248 247 244 241 242 242 238 254 244 246 249 250 253 251 251 252 257 261 256 264 263 261 254 254 251 251 247 250 251 251 249 251
317 323 314 314 311 307 294 290 284 276 257 259 259 257 251 250 238 243 241 242 241 245 257 251 257 250 250 252 249 252 255 259 260 265 263 263 261 255 253 253 247 249 250 250 253 250 249
316 323 320 316 316 311 308 303 294 280 271 260 245 247 247 247 244 239 241 239 242 247 249 247 252 256 252 255 254 253 255 257 261 263 262 261 258 255 252 243 243 246 247 249 250 252 255
323 321 322 321 329 329 314 315 309 301 282 266 256 244 240 241 242 241 239 242 241 244 244 242 246 249 253 257 255 256 257 263 264 264 263 262 248 255 245 241 242 245 245 247 249 251 251
324 321 325 335 336 334 333 318 311 302 293 281 259 249 235 237 237 239 240 252 244 244 246 248 245 250 252 254 257 256 252 254 256 261 262 257 245 252 244 240 239 243 246 247 246 249 249
324 325 329 329 330 340 337 334 328 326 315 293 277 254 232 239 239 236 238 241 245 244 246 247 247 249 252 254 257 259 261 260 260 258 261 243 244 250 239 240 240 241 246 248 247 247 249
325 329 329 328 331 340 344 345 349 356 339 343 353 280 267 250 241 239 239 240 243 244 246 251 250 251 252 255 256 258 258 259 259 260 243 248 236 235 237 239 239 241 244 246 247 246 246
329 331 330 330 336 344 344 342 342 341 335 321 299 246 247 252 253 249 238 238 235 243 247 249 251 252 253 255 256 256 257 257 258 255 237 231 227 232 235 236 236 236 240 242 242 242 242
331 332 329 328 335 342 345 339 349 353 334 323 314 292 314 330 263 243 241 240 236 236 237 239 247 249 250 243 253 254 256 246 252 243 236 232 230 231 236 236 235 237 237 239 241 240 237
334 332 326 328 332 337 338 341 336 338 334 327 320 320 289 281 338 269 234 239 243 241 237 235 236 236 234 238 237 247 250 244 246 240 236 234 232 231 234 236 237 236 237 243 244 244 246
333 334 334 327 337 333 334 331 328 329 314 314 313 294 285 263 237 244 276 250 246 250 230 224 224 225 225 232 235 238 239 238 242 243 238 237 234 231 233 235 234 234 237 239 241 243 243
333 336 337 324 326 334 332 333 322 324 306 298 305 296 284 275 260 258 247 236 231 221 216 215 221 227 230 230 232 230 235 237 238 237 234 236 236 234 230 232 231 235 237 241 243 244 246
335 335 338 334 331 322 326 328 327 316 294 302 280 283 272 271 285 261 265 245 224 218 220 227 229 236 231 229 232 234 235 238 238 237 234 234 234 233 232 233 233 235 241 244 245 246 247
331 332 336 340 326 317 313 313 317 304 284 275 282 274 273 265 259 261 256 252 244 237 234 230 232 235 235 232 227 229 232 237 243 243 237 239 238 235 236 238 239 241 245 246 247 248 249
333 333 334 338 337 330 307 299 299 302 275 289 275 278 270 259 263 258 255 253 251 242 245 242 238 237 234 232 231 232 234 237 234 233 238 242 241 238 240 241 242 241 244 247 248 250 252
332 330 334 337 335 332 325 299 284 285 290 273 271 274 277 259 252 254 255 253 250 249 246 239 237 238 238 236 235 237 239 239 234 239 241 243 244 244 241 243 243 245 247 249 250 251 254
333 329 332 335 334 333 325 314 293 302 277 279 278 265 271 269 261 255 261 253 250 248 251 246 240 238 236 236 235 236 239 241 241 242 242 245 245 246 244 246 246 248 249 252 253 254 255
332 328 334 335 334 334 331 317 303 290 282 270 269 273 271 266 258 262 255 261 258 254 245 241 243 243 243 239 241 243 244 244 245 244 247 247 249 249 248 248 249 249 250 252 255 256 259
329 329 332 334 333 332 329 322 307 302 296 296 273 266 262 265 262 260 259 257 255 254 254 256 247 245 242 243 243 245 245 245 246 246 244 246 249 251 251 252 251 252 253 253 254 257 260
329 329 334 333 333 331 332 320 307 303 300 292 282 273 265 257 258 258 259 253 254 257 257 250 256 254 255 252 244 249 250 251 250 250 251 252 252 253 253 253 253 254 255 256 257 259 262